TimeCDT,TemperatureF,Dew PointF,Humidity,Sea Level PressureIn,VisibilityMPH,Wind Direction,Wind SpeedMPH,Gust SpeedMPH,PrecipitationIn,Events,Conditions,WindDirDegrees,DateUTC
12:53 AM,82.9,75.0,77,30.00,10.0,South,11.5,23.0,N/A,,Scattered Clouds,180,2013-07-11 05:53:00
1:53 AM,82.9,75.0,77,30.00,10.0,South,9.2,-,N/A,,Scattered Clouds,180,2013-07-11 06:53:00
2:53 AM,84.0,75.0,74,30.01,10.0,South,8.1,81.7,N/A,,Partly Cloudy,190,2013-07-11 07:53:00
3:06 AM,84.2,75.2,74,30.01,10.0,South,9.2,-,N/A,,Mostly Cloudy,190,2013-07-11 08:06:00
3:33 AM,84.2,75.2,74,30.01,10.0,South,9.2,19.6,N/A,,Mostly Cloudy,190,2013-07-11 08:33:00
3:53 AM,82.9,73.9,74,30.01,10.0,SSW,12.7,-,N/A,,Clear,200,2013-07-11 08:53:00
4:53 AM,82.0,75.0,79,30.00,10.0,SW,4.6,-,N/A,,Partly Cloudy,220,2013-07-11 09:53:00
5:53 AM,82.0,73.9,76,30.01,10.0,SW,8.1,-,N/A,,Scattered Clouds,220,2013-07-11 10:53:00
6:53 AM,81.0,73.9,79,30.01,10.0,SW,5.8,-,N/A,,Clear,220,2013-07-11 11:53:00
8:53 AM,84.9,73.9,69,30.00,10.0,SSW,8.1,-,N/A,,Clear,200,2013-07-11 13:53:00
9:53 AM,86.0,73.9,67,30.00,10.0,South,8.1,-,N/A,,Partly Cloudy,190,2013-07-11 14:53:00
10:53 AM,88.0,73.9,63,30.00,10.0,South,10.4,-,N/A,,Clear,190,2013-07-11 15:53:00
11:53 AM,89.1,73.0,59,29.99,10.0,SSW,12.7,-,N/A,,Clear,200,2013-07-11 16:53:00
12:53 PM,90.0,71.1,54,29.99,10.0,South,11.5,19.6,N/A,,Clear,190,2013-07-11 17:53:00
1:53 PM,89.1,72.0,57,29.98,10.0,SSW,12.7,-,N/A,,Clear,200,2013-07-11 18:53:00
2:53 PM,90.0,73.0,57,29.96,10.0,South,11.5,-,N/A,,Clear,170,2013-07-11 19:53:00
3:53 PM,90.0,72.0,55,29.95,10.0,South,15.0,-,N/A,,Clear,170,2013-07-11 20:53:00
4:53 PM,90.0,73.0,57,29.94,10.0,South,16.1,20.7,N/A,,Clear,170,2013-07-11 21:53:00
5:53 PM,88.0,73.9,63,29.93,10.0,South,15.0,-,N/A,,Clear,170,2013-07-11 22:53:00
6:53 PM,87.1,73.0,63,29.93,10.0,South,13.8,-,N/A,,Clear,180,2013-07-11 23:53:00
7:53 PM,84.9,75.0,72,29.93,10.0,South,9.2,-,N/A,,Clear,170,2013-07-12 00:53:00
8:53 PM,82.9,73.0,72,29.93,10.0,South,10.4,-,N/A,,Clear,170,2013-07-12 01:53:00
9:53 PM,82.9,75.0,77,29.93,10.0,South,11.5,-,N/A,,Clear,170,2013-07-12 02:53:00
10:53 PM,82.9,73.9,74,29.94,10.0,South,10.4,-,N/A,,Clear,180,2013-07-12 03:53:00
11:53 PM,82.9,75.0,77,29.95,10.0,South,10.4,-,N/A,,Partly Cloudy,170,2013-07-12 04:53:00